Regional Weather Roundup
Issued by NWS Little Rock, AR

Home | Current Version | Previous Version | Graphics & Text | Print | Product List | Glossary On
Versions: 1 2 3 4 5 6 7 8 9 10 11 12 13 14 15 16 17 18 19 20 21 22 23 24 25 26 27 28 29 30 31 32 33 34 35 36 37 38 39 40 41 42 43 44 45 46 47 48 49 50
008
ASUS44 KLZK 180305
RWRLZK

WEATHER ROUNDUP FOR ARKANSAS
NATIONAL WEATHER SERVICE LITTLE ROCK AR
900 PM CST FRI NOV 17 2017

NOTE: "FAIR" INDICATES FEW OR NO CLOUDS BELOW 12,000 FEET WITH NO
SIGNIFICANT WEATHER AND/OR OBSTRUCTIONS TO VISIBILITY.

ARZ001-003-010-029-180400-
NORTHWEST ARKANSAS

CITY           SKY/WX    TMP DP  RH WIND       PRES   REMARKS
FAYETTEVILLE   PTCLDY    68  63  84 SW16G26   29.65F
FORT SMITH     PTCLDY    72  63  73 S6        29.66F
HARRISON       PTCLDY    68  61  78 S12G21    29.66S
BENTONVILLE    PTCLDY    68  61  78 S15G23    29.65F
ROGERS         PTCLDY    67  61  81 S21G29    29.64S
SILOAM SPGS    CLEAR     68  62  81 S21       29.64S
HIGHFILL       PTCLDY    68  62  81 S20G30    29.63F
SPRINGDALE     PTCLDY    68  63  83 S18G25    29.66F
$$

ARZ004-005-016-180400-
NORTH CENTRAL ARKANSAS

CITY           SKY/WX    TMP DP  RH WIND       PRES   REMARKS
BATESVILLE     CLOUDY    70  62  76 S12G26    29.72F
FLIPPIN        PTCLDY    70  62  76 S14G21    29.65F
MTN HOME       PTCLDY    67  62  84 SW10      29.65S
$$

ARZ040-041-180400-
WEST CENTRAL ARKANSAS

CITY           SKY/WX    TMP DP  RH WIND       PRES   REMARKS
MENA           MOCLDY    73  72  94 S6        29.75F
MOUNT IDA      MOCLDY    73  65  75 VRB6      29.72F
$$

ARZ009-017-025-026-028-180400-
NORTHEAST ARKANSAS

CITY           SKY/WX    TMP DP  RH WIND       PRES   REMARKS
JONESBORO      CLOUDY    68  60  75 S20G25    29.74S
NEWPORT        CLOUDY    66  60  81 S16       29.72F
WALNUT RIDGE   PTCLDY    67  60  78 S22       29.70F
BLYTHEVILLE    MOCLDY    66  57  72 S20       29.76F
$$

ARZ022-023-033-042-044-180400-
CENTRAL ARKANSAS

CITY           SKY/WX    TMP DP  RH WIND       PRES   REMARKS
LITTLE ROCK    MOCLDY    70  64  81 S14G21    29.75F
N LITTLE ROCK    N/A     70  64  81 S7        29.77F
JACKSONVILLE   MOCLDY    71  64  78 S12       29.75F
SEARCY         CLOUDY    71  64  78 S14       29.75F
HOT SPRINGS    MOCLDY    72  66  81 S9        29.76F
RUSSELLVILLE   MOCLDY    71  64  78 S7        29.70F
CLINTON        CLOUDY    70  64  83 S10G17    29.73S
$$

ARZ036-180400-
EAST ARKANSAS

CITY           SKY/WX    TMP DP  RH WIND       PRES   REMARKS
WEST MEMPHIS   CLOUDY    69  57  65 S21       29.79F
$$

ARZ050-053-066-070-073-180400-
SOUTHWEST ARKANSAS

CITY           SKY/WX    TMP DP  RH WIND       PRES   REMARKS
ARKADELPHIA    FAIR      71  65  81 S14       29.76F
CAMDEN         CLOUDY    72  63  73 S10       29.79S
TEXARKANA      CLOUDY    72  65  78 S12       29.77F
EL DORADO      PTCLDY    70  66  87 S15       29.81F
DE QUEEN       PTCLDY    70  67  90 S6        29.73F
$$

ARZ056-057-069-180400-
SOUTHEAST ARKANSAS

CITY           SKY/WX    TMP DP  RH WIND       PRES   REMARKS
PINE BLUFF     CLOUDY    72  62  71 S17G33    29.78F
STUTTGART      CLOUDY    71  62  73 S21       29.78F
MONTICELLO     MOCLDY    72  61  68 S12G20    29.82F

$$






USA.gov is the U.S. government's official web portal to all federal, state and local government web resources and services.